FW9022 Weather Reports


Display with metric or nautical units.
time (UTC)temp
F
wind
direction
speed
MPH
gust
MPH
rain 1hr
in
rain 24hr
in
rain mn
in
humidity
%
barometer
mb
20260506201851 74 307 0.0 4.0 0.00 0.25 0.25 71 1013.0
20260506200855 74 114 0.0 2.0 0.00 0.25 0.25 72 1012.7
20260506195858 73 171 0.0 10.0 0.00 0.25 0.25 76 1013.1
20260506194832 73 132 1.0 5.0 0.00 0.25 0.25 78 1013.1
20260506193826 73 126 1.0 6.0 0.00 0.25 0.25 78 1013.1
20260506192840 73 183 1.0 6.0 0.00 0.25 0.25 78 1013.3
20260506191835 72 229 0.0 5.0 0.00 0.25 0.25 79 1013.3
20260506190838 72 120 1.0 7.0 0.00 0.25 0.25 79 1013.0
20260506185837 71 80 0.0 4.0 0.00 0.25 0.25 81 1012.9
20260506184835 71 169 3.0 6.0 0.01 0.25 0.25 80 1012.9
20260506183829 70 122 2.0 10.0 0.01 0.25 0.25 83 1012.9
20260506182823 70 126 4.0 7.0 0.01 0.25 0.25 80 1013.2
20260506181837 69 130 4.0 9.0 0.01 0.25 0.25 84 1013.2
20260506180846 68 150 1.0 6.0 0.01 0.25 0.25 88 1012.8
20260506175825 67 152 0.0 10.0 0.01 0.25 0.25 88 1012.6
20260506174819 67 104 6.0 10.0 0.00 0.24 0.24 87 1012.6
20260506173853 67 130 1.0 7.0 0.00 0.24 0.24 91 1012.7
20260506172831 66 115 2.0 7.0 0.00 0.24 0.24 92 1013.4
20260506171826 65 106 0.0 2.0 0.00 0.24 0.24 95 1013.4
20260506170851 64 147 0.0 7.0 0.01 0.24 0.24 95 1013.2
20260506165835 64 127 1.0 4.0 0.03 0.24 0.24 96 1014.1
20260506164830 63 139 0.0 3.0 0.04 0.24 0.24 96 1014.1
20260506163824 63 142 0.0 4.0 0.06 0.24 0.24 96 1015.0
20260506162823 63 159 0.0 1.0 0.09 0.24 0.24 96 1015.6
20260506161818 62 159 0.0 5.0 0.20 0.24 0.24 95 1015.6
20260506160842 62 132 0.0 2.0 0.22 0.24 0.24 95 1016.1
20260506155842 61 132 0.0 0.0 0.20 0.21 0.21 94 1015.7
20260506154820 61 132 0.0 1.0 0.20 0.20 0.20 94 1015.7
20260506153835 61 132 0.0 2.0 0.18 0.18 0.18 93 1015.4
20260506152829 62 132 1.0 2.0 0.15 0.15 0.15 92 1015.4
20260506151823 63 175 0.0 0.0 0.05 0.05 0.05 90 1015.4
20260506150851 63 175 0.0 1.0 0.02 0.02 0.02 89 1014.1
20260506145831 64 175 0.0 0.0 0.01 0.01 0.01 88 1013.9
20260506144845 64 175 0.0 0.0 0.00 0.00 0.00 86 1013.9
20260506143823 64 175 0.0 0.0 0.00 0.00 0.00 83 1013.5
20260506142834 64 175 0.0 1.0 0.00 0.00 0.00 83 1013.6
20260506141828 64 175 0.0 0.0 0.00 0.00 0.00 81 1013.6
20260506140852 64 175 0.0 2.0 0.00 0.00 0.00 81 1013.5
20260506135836 64 175 0.0 0.0 0.00 0.00 0.00 83 1013.0
20260506134829 64 175 0.0 0.0 0.00 0.00 0.00 81 1013.0
20260506133824 64 174 0.0 0.0 0.00 0.00 0.00 79 1012.4
20260506132822 64 174 0.0 2.0 0.00 0.00 0.00 77 1013.5
20260506131838 64 174 1.0 1.0 0.00 0.00 0.00 78 1013.5
20260506130843 64 174 0.0 3.0 0.00 0.00 0.00 76 1012.8
20260506125823 64 168 0.0 0.0 0.00 0.00 0.00 74 1013.0
20260506124821 64 168 0.0 0.0 0.00 0.00 0.00 75 1013.0
20260506123836 64 168 0.0 2.0 0.00 0.00 0.00 74 1012.5
20260506122830 64 168 1.0 2.0 0.00 0.00 0.00 75 1012.6
20260506121845 65 168 0.0 0.0 0.00 0.00 0.00 75 1012.6
20260506120913 65 168 0.0 1.0 0.00 0.00 0.00 72 1012.3
20260506115833 65 230 0.0 1.0 0.00 0.00 0.00 72 1012.3
20260506114827 65 230 1.0 3.0 0.00 0.00 0.00 71 1012.3
20260506113824 65 126 0.0 4.0 0.00 0.00 0.00 70 1012.3
20260506112819 65 114 0.0 4.0 0.00 0.00 0.00 70 1012.4
20260506111833 65 140 2.0 5.0 0.00 0.00 0.00 69 1012.4
20260506110837 65 153 1.0 11.0 0.00 0.00 0.00 68 1013.1
20260506105820 65 159 2.0 7.0 0.00 0.00 0.00 68 1012.7
20260506104834 65 152 3.0 7.0 0.00 0.00 0.00 67 1012.7
20260506103828 65 140 4.0 9.0 0.00 0.00 0.00 66 1012.4
20260506102826 66 148 5.0 11.0 0.00 0.00 0.00 66 1012.4
20260506101841 66 169 3.0 11.0 0.00 0.00 0.00 67 1012.4
20260506100843 66 125 4.0 13.0 0.00 0.00 0.00 67 1012.1
20260506095822 66 181 2.0 13.0 0.00 0.00 0.00 67 1011.9
20260506094855 66 148 4.0 10.0 0.00 0.00 0.00 67 1011.9
20260506093831 66 123 3.0 12.0 0.00 0.00 0.00 66 1011.9
20260506092825 67 157 4.0 11.0 0.00 0.00 0.00 65 1011.7
20260506091820 67 126 3.0 10.0 0.00 0.00 0.00 64 1011.7
20260506090904 67 194 2.0 5.0 0.00 0.00 0.00 64 1011.9
20260506085826 67 133 1.0 9.0 0.00 0.00 0.00 62 1011.9
20260506084820 67 152 4.0 10.0 0.00 0.00 0.00 62 1011.9
20260506083834 67 180 1.0 7.0 0.00 0.00 0.00 62 1012.0
20260506082833 67 148 1.0 4.0 0.00 0.00 0.00 61 1012.3
20260506081847 67 137 1.0 7.0 0.00 0.00 0.00 61 1012.3
20260506080910 67 164 0.0 5.0 0.00 0.00 0.00 60 1012.3
20260506072834 63 250 0.0 5.0 0.00 0.00 0.00 64 1012.2
20260506071827 60 169 1.0 3.0 0.00 0.00 0.00 70 1012.2
20260506070836 58 250 0.0 1.0 0.00 0.00 0.00 77 1012.5
20260506061834 60 151 0.0 1.0 0.00 0.00 0.00 73 1012.9
20260506060838 61 151 0.0 0.0 0.00 0.00 0.00 72 1012.6
20260506050844 63 222 0.0 4.0 0.00 0.00 0.00 65 1013.1
20260506044821 64 166 1.0 2.0 0.00 0.00 0.00 64 1013.7
20260506043834 64 165 0.0 1.0 0.00 0.00 0.00 64 1013.7
20260506042827 65 166 0.0 1.0 0.00 0.00 0.00 61 1013.4
20260506041822 66 215 0.0 3.0 0.00 0.00 0.00 59 1013.4
20260506040911 66 206 2.0 5.0 0.00 0.00 0.00 58 1013.9
20260506035829 66 123 1.0 5.0 0.00 0.00 0.00 59 1013.9
20260506034823 67 229 1.0 4.0 0.00 0.00 0.00 57 1013.9
20260506033820 67 192 1.0 5.0 0.00 0.00 0.00 57 1014.0
20260506032835 68 272 0.0 7.0 0.00 0.00 0.00 55 1013.6
20260506031830 68 178 2.0 9.0 0.00 0.00 0.00 54 1013.6
20260506030833 68 139 3.0 10.0 0.00 0.00 0.00 54 1014.2
20260506025836 68 141 4.0 10.0 0.00 0.00 0.00 54 1013.6
20260506024830 67 178 2.0 5.0 0.00 0.00 0.00 54 1013.6
20260506023824 67 211 1.0 7.0 0.00 0.00 0.00 53 1013.5
20260506022822 67 178 1.0 7.0 0.00 0.00 0.00 54 1013.2
20260506021836 67 212 1.0 6.0 0.00 0.00 0.00 54 1013.2
20260506020841 67 78 1.0 3.0 0.00 0.00 0.00 54 1013.3
20260506015840 68 217 0.0 5.0 0.00 0.00 0.00 53 1013.3
20260506014837 68 243 0.0 5.0 0.00 0.00 0.00 52 1013.3
20260506013830 68 200 0.0 11.0 0.00 0.00 0.00 52 1013.4
20260506012823 67 155 1.0 3.0 0.00 0.00 0.00 52 1013.4
20260506011836 68 110 0.0 4.0 0.00 0.00 0.00 52 1013.4
20260506010902 68 240 0.0 3.0 0.00 0.00 0.00 52 1013.3
20260506005818 68 215 0.0 4.0 0.00 0.00 0.00 52 1013.2
20260506004831 69 156 1.0 7.0 0.00 0.00 0.00 50 1013.2
20260506003826 69 211 1.0 7.0 0.00 0.00 0.00 50 1013.0
20260506002844 69 144 0.0 2.0 0.00 0.00 0.00 49 1013.8
20260506001818 70 144 0.0 5.0 0.00 0.00 0.00 48 1013.8
20260506000843 70 144 2.0 10.0 0.00 0.00 0.00 48 1013.4
20260505235828 70 208 1.0 6.0 0.00 0.00 0.00 47 1013.5
20260505234823 70 192 1.0 9.0 0.00 0.00 0.00 47 1013.5
20260505233837 71 190 2.0 8.0 0.00 0.00 0.00 46 1013.4
20260505232851 71 259 2.0 8.0 0.00 0.00 0.00 46 1013.4
20260505231828 71 133 1.0 6.0 0.00 0.00 0.00 47 1013.4
20260505230912 71 209 1.0 6.0 0.00 0.00 0.00 46 1013.5
20260505225831 72 276 1.0 7.0 0.00 0.00 0.00 46 1013.5
20260505224825 72 192 2.0 14.0 0.00 0.00 0.00 45 1013.5
20260505223823 72 296 10.0 18.0 0.00 0.00 0.00 45 1013.5
20260505222857 72 241 6.0 17.0 0.00 0.00 0.00 44 1013.3
20260505221831 73 166 2.0 14.0 0.00 0.00 0.00 43 1013.3
20260505220856 73 162 1.0 7.0 0.00 0.00 0.00 44 1013.3
20260505215818 73 245 1.0 15.0 0.00 0.00 0.00 43 1013.3
20260505214833 73 105 6.0 12.0 0.00 0.00 0.00 44 1013.3
20260505213827 73 215 2.0 15.0 0.00 0.00 0.00 45 1013.3
20260505212825 73 237 5.0 17.0 0.00 0.00 0.00 45 1013.3
20260505211819 73 105 5.0 12.0 0.00 0.00 0.00 44 1013.3
20260505210843 73 218 8.0 16.0 0.00 0.00 0.00 44 1013.2
20260505205824 73 148 9.0 19.0 0.00 0.00 0.00 45 1013.5
20260505204822 72 142 3.0 15.0 0.00 0.00 0.00 45 1013.5
20260505203836 73 131 9.0 20.0 0.00 0.00 0.00 44 1013.5
20260505202850 73 205 2.0 10.0 0.00 0.00 0.00 46 1013.6